This demonstration page uses our WeatherBlox Daily Observations layout. Learn more.

Left ArrowRight Arrow

39.51506, -84.39828

Hourly Observations for April 14, 2015

Temp ( °F °C ) Dew Point ( °F °C ) Humidity (%) Winds ( mph kmh ) Pressure ( in mb ) Visibility ( mi km ) Precip ( " mm )
12:15 am 00:15 Cloudy 62 16.6 53 11.5 72 72 NE 7 11 30.12 1020 10 16.0934 N/A
12:35 am 00:35 Mostly Cloudy 62 16.5 51 10.6 68 68 NNE 7 11 30.12 1020 10 16.0934 N/A
12:55 am 00:55 Mostly Cloudy 61 16 49 9.4 65 65 NNE 7 11 30.15 1021 10 16.0934 N/A
1:15 am 01:15 Mostly Cloudy 61 16 49 9.5 66 66 NNE 8 13 30.15 1021 10 16.0934 N/A
1:35 am 01:35 Mostly Cloudy 61 15.9 49 9.3 65 65 NNE 9 15 30.15 1021 10 16.0934 N/A
1:55 am 01:55 Mostly Cloudy 60 15.5 46 7.8 60 60 NNE 13 20 30.15 1021 10 16.0934 N/A
2:15 am 02:15 Mostly Cloudy 60 15.4 43 6.3 55 55 NNE 10 17 30.15 1021 10 16.0934 N/A
2:35 am 02:35 Cloudy 60 15.3 43 6 54 54 NE 8 13 30.15 1021 10 16.0934 N/A
2:55 am 02:55 Cloudy 60 15.3 43 6.2 55 55 NNE 6 9 30.15 1021 10 16.0934 N/A
3:15 am 03:15 Cloudy 60 15.3 43 6.3 55 55 NNE 7 11 30.15 1021 10 16.0934 N/A
3:35 am 03:35 Partly Cloudy 60 15.3 43 6 54 54 NNE 7 11 30.15 1021 10 16.0934 N/A
3:55 am 03:55 Clear 57 14 40 4.7 54 54 NNE 7 11 30.18 1022 10 16.0934 N/A
4:15 am 04:15 Clear 57 13.8 39 4.1 52 52 NNE 8 13 30.15 1021 10 16.0934 N/A
4:35 am 04:35 Clear 57 13.8 39 4.1 52 52 NNE 8 13 30.15 1021 10 16.0934 N/A
4:55 am 04:55 Clear 57 13.8 38 3.6 50 50 NE 8 13 30.15 1021 10 16.0934 N/A
5:15 am 05:15 Clear 57 13.8 38 3.5 50 50 NE 9 15 30.15 1021 10 16.0934 N/A
5:35 am 05:35 Clear 57 13.8 39 3.9 52 52 NE 7 11 30.15 1021 10 16.0934 N/A
5:55 am 05:55 Clear 57 13.8 40 4.5 54 54 NE 6 9 30.15 1021 10 16.0934 N/A
6:15 am 06:15 Clear 57 13.8 40 4.5 54 54 NNE 6 9 30.15 1021 10 16.0934 N/A
6:35 am 06:35 Clear 57 13.8 38 3.6 50 50 NNE 8 13 30.15 1021 10 16.0934 N/A
6:55 am 06:55 Clear 57 13.8 35 1.8 44 44 NE 7 11 30.15 1021 10 16.0934 N/A
7:15 am 07:15 Sunny 57 13.8 33 0.5 40 40 NE 8 13 30.15 1021 10 16.0934 N/A
7:35 am 07:35 Sunny 57 13.8 33 0.3 40 40 NE 9 15 30.18 1022 10 16.0934 N/A
7:55 am 07:55 Sunny 57 13.8 34 1.2 43 43 ENE 8 13 30.18 1022 10 16.0934 N/A
8:15 am 08:15 Sunny 57 13.8 35 1.7 44 44 ENE 6 9 30.18 1022 10 16.0934 N/A
8:35 am 08:35 Sunny 57 13.8 37 2.6 47 47 ENE 5 7 30.21 1023 10 16.0934 N/A
8:55 am 08:55 Sunny 57 13.8 38 3.2 49 49 NE 5 7 30.21 1023 10 16.0934 N/A
9:15 am 09:15 Sunny 57 13.8 37 2.8 48 48 NE 6 9 30.21 1023 10 16.0934 N/A
9:35 am 09:35 Sunny 57 13.8 38 3.3 49 49 NE 6 9 30.21 1023 10 16.0934 N/A
9:55 am 09:55 Sunny 57 13.8 38 3.5 50 50 NNE 6 9 30.21 1023 10 16.0934 N/A
10:15 am 10:15 Sunny 57 13.8 39 3.8 51 51 NE 5 7 30.21 1023 10 16.0934 N/A
10:35 am 10:35 Sunny 57 13.8 39 3.7 51 51 NE 5 7 30.21 1023 10 16.0934 N/A
10:55 am 10:55 Sunny 57 14 39 4.1 52 52 NNE 6 9 30.24 1024 10 16.0934 N/A
11:15 am 11:15 Sunny 57 14.1 40 4.5 53 53 NE 6 9 30.24 1024 10 16.0934 N/A
11:35 am 11:35 Sunny 60 15.3 41 4.8 50 50 NNE 8 13 30.21 1023 10 16.0934 N/A
11:55 am 11:55 Sunny 60 15.3 40 4.4 48 48 NNE 9 15 30.21 1023 10 16.0934 N/A
12:15 pm 12:15 Sunny 60 15.3 40 4.6 49 49 NNE 12 19 30.21 1023 10 16.0934 N/A
12:35 pm 12:35 Sunny 60 15.3 38 3.6 46 46 NNE 9 15 30.21 1023 10 16.0934 N/A
12:55 pm 12:55 Sunny 61 16 38 3.4 43 43 NNE 12 19 30.21 1023 10 16.0934 N/A
1:15 pm 13:15 Sunny 61 15.9 36 2.4 40 40 NE 10 17 30.21 1023 10 16.0934 N/A
1:35 pm 13:35 Partly Cloudy 60 15.6 36 2.3 41 41 NNE 8 13 30.21 1023 10 16.0934 N/A
1:55 pm 13:55 Partly Cloudy 62 16.6 37 2.7 40 40 NNE 10 17 30.21 1023 10 16.0934 N/A
2:15 pm 14:15 Sunny 61 16.1 33 0.8 36 36 NE 14 22 30.18 1022 10 16.0934 N/A
2:35 pm 14:35 Mostly Cloudy 62 16.6 31 -0.8 31 31 NE 15 24 30.15 1021 10 16.0934 N/A
2:55 pm 14:55 Partly Cloudy 62 16.6 30 -1.1 30 30 ENE 13 20 30.15 1021 10 16.0934 N/A
3:15 pm 15:15 Sunny 62 16.6 28 -2.1 28 28 ENE 15 24 30.15 1021 10 16.0934 N/A
3:35 pm 15:35 Sunny 62 16.6 32 -0.2 32 32 NE 8 13 30.15 1021 10 16.0934 N/A
3:55 pm 15:55 Sunny 62 16.6 32 -0.1 32 32 NE 12 19 30.15 1021 10 16.0934 N/A
4:15 pm 16:15 Sunny 62 16.6 33 0.5 34 34 NE 12 19 30.15 1021 10 16.0934 N/A
4:35 pm 16:35 Sunny 62 16.6 32 0.2 33 33 NE 12 19 30.12 1020 10 16.0934 N/A
4:55 pm 16:55 Sunny 62 16.6 33 0.3 33 33 NE 12 19 30.12 1020 10 16.0934 N/A
5:15 pm 17:15 Sunny 62 16.6 33 0.8 35 35 NE 9 15 30.15 1021 10 16.0934 N/A
5:35 pm 17:35 Sunny 62 16.6 35 1.5 36 36 ENE 7 11 30.15 1021 10 16.0934 N/A
5:55 pm 17:55 Sunny 62 16.6 34 1.3 36 36 NE 9 15 30.12 1020 10 16.0934 N/A
6:15 pm 18:15 Sunny 62 16.6 36 2.4 39 39 N N/A 30.15 1021 10 16.0934 N/A
6:35 pm 18:35 Sunny 61 16 37 2.7 41 41 NNE 8 13 30.18 1022 10 16.0934 N/A
6:55 pm 18:55 Sunny 61 16 37 2.5 41 41 NE 6 9 30.18 1022 10 16.0934 N/A
7:15 pm 19:15 Sunny 61 16 37 2.6 41 41 NE 3 6 30.18 1022 10 16.0934 N/A
7:35 pm 19:35 Sunny 60 15.5 37 2.7 42 42 NNE 5 7 30.18 1022 10 16.0934 N/A
7:55 pm 19:55 Sunny 60 15.3 37 3 44 44 NNE 3 6 30.18 1022 10 16.0934 N/A
8:15 pm 20:15 Clear 60 15.3 37 2.8 43 43 NNE 3 6 30.18 1022 10 16.0934 N/A
8:35 pm 20:35 Clear 60 15.3 38 3.4 45 45 N 3 6 30.18 1022 10 16.0934 N/A
8:55 pm 20:55 Clear 57 13.8 39 3.8 51 51 NNE 6 9 30.18 1022 10 16.0934 N/A
9:15 pm 21:15 Clear 57 14.1 38 3.1 48 48 NNE 6 9 30.18 1022 10 16.0934 N/A
9:35 pm 21:35 Clear 57 13.8 37 2.9 48 48 NNE 6 9 30.21 1023 10 16.0934 N/A
9:55 pm 21:55 Clear 57 13.8 39 3.8 51 51 NNE 5 7 30.21 1023 10 16.0934 N/A
10:15 pm 22:15 Clear 57 13.8 37 3 48 48 NNE 3 6 30.21 1023 10 16.0934 N/A
10:35 pm 22:35 Clear 55 12.8 37 2.8 51 51 NNE 3 6 30.21 1023 10 16.0934 N/A
10:55 pm 22:55 Clear 55 12.5 42 5.6 63 63 NNE 5 7 30.21 1023 10 16.0934 N/A
11:15 pm 23:15 Clear 53 11.7 41 4.9 63 63 NNE 5 7 30.21 1023 10 16.0934 N/A
11:35 pm 23:35 Clear 55 12.5 39 4 56 56 N 6 9 30.21 1023 10 16.0934 N/A
11:55 pm 23:55 Clear 55 12.5 37 2.8 52 52 NNE 5 7 30.21 1023 10 16.0934 N/A

Powered by AerisWeather